Temperature
10 10 10 9 9 8 8 8 7 7 6 6 5 5 4 4 3 2 2 2 1 1 0 -0 -1 -1 -1 -2 -2 -3 -3 -3 -4 -3 -3 -3 -3 -4 -4 -4 -4 -4 -4
10 10 9 9 8 8 8 7 7 6 6 5 5 4 4 3 3 2 2 1 1 0 -0 -1 -1 -2 -2 -2 -3 -3 -3 -4 -4 -4 -4 -4 -4 -4 -4 -5 -5 -5 -4
10 9 9 8 8 8 7 7 6 6 5 5 4 4 3 3 2 2 1 1 0 -0 -1 -1 -2 -2 -3 -3 -3 -4 -4 -4 -4 -5 -5 -5 -5 -5 -5 -5 -5 -5 -5
9 9 9 8 8 7 7 6 6 5 5 4 4 3 3 2 2 1 1 0 -1 -1 -1 -2 -2 -3 -3 -3 -4 -4 -4 -5 -5 -5 -5 -5 -5 -5 -5 -5 -5 -5 -5
9 9 8 8 7 7 6 6 5 5 4 4 3 3 2 2 1 1 0 -1 -1 -2 -2 -2 -3 -3 -3 -4 -4 -5 -5 -5 -5 -5 -5 -5 -5 -5 -5 -5 -5 -5 -5
9 8 8 7 7 6 6 5 5 4 4 3 3 2 2 1 1 0 -0 -1 -2 -3 -3 -3 -3 -4 -4 -4 -4 -5 -5 -5 -5 -5 -5 -5 -5 -5 -5 -5 -5 -5 -5
8 8 7 7 6 5 5 4 4 3 3 2 2 1 1 1 0 -0 -1 -2 -3 -3 -4 -4 -4 -4 -5 -5 -5 -5 -6 -6 -6 -6 -6 -6 -6 -5 -5 -5 -5 -6 -6
7 7 7 6 5 5 4 4 3 3 2 2 1 1 0 0 -0 -1 -1 -2 -3 -4 -4 -4 -5 -5 -5 -5 -6 -6 -6 -6 -6 -6 -6 -6 -6 -6 -6 -6 -6 -6 -6
7 6 6 5 5 4 4 3 3 2 1 1 0 -0 -0 -1 -1 -1 -2 -3 -4 -4 -4 -5 -5 -5 -5 -6 -6 -6 -6 -6 -6 -6 -6 -6 -6 -6 -6 -6 -6 -6 -6
6 6 5 4 4 3 3 2 2 1 1 0 -0 -1 -1 -1 -2 -2 -3 -4 -5 -5 -5 -5 -5 -5 -6 -6 -6 -6 -6 -6 -6 -6 -6 -6 -6 -6 -6 -6 -6 -7 -7
5 5 4 4 3 3 2 2 1 0 -0 -1 -1 -1 -2 -2 -3 -3 -4 -4 -5 -5 -6 -6 -6 -6 -6 -6 -6 -6 -6 -6 -6 -6 -7 -7 -7 -7 -7 -7 -7 -7 -7
4 4 3 3 2 2 1 1 0 -0 -1 -2 -2 -3 -3 -3 -4 -4 -5 -5 -5 -6 -6 -6 -6 -7 -7 -7 -7 -7 -7 -7 -7 -7 -7 -7 -7 -7 -7 -7 -7 -7 -8
4 3 3 2 1 1 0 -0 -1 -1 -2 -3 -3 -4 -4 -4 -4 -5 -5 -6 -6 -6 -6 -7 -7 -7 -7 -7 -7 -7 -7 -7 -7 -8 -8 -8 -8 -8 -8 -8 -8 -8 -8
3 2 2 1 1 0 -0 -1 -1 -2 -3 -3 -4 -4 -5 -5 -5 -6 -6 -6 -6 -7 -7 -7 -7 -7 -7 -7 -7 -8 -8 -8 -8 -8 -8 -8 -8 -8 -8 -9 -9 -9 -8
2 1 1 0 -0 -1 -1 -2 -2 -3 -3 -4 -5 -5 -6 -6 -6 -6 -7 -7 -7 -7 -7 -8 -8 -8 -8 -8 -8 -8 -8 -8 -9 -9 -9 -9 -9 -9 -9 -9 -9 -9 -9
1 0 -0 -1 -1 -2 -2 -3 -3 -4 -4 -4 -5 -6 -6 -6 -7 -7 -7 -7 -8 -8 -8 -8 -8 -8 -8 -8 -9 -9 -9 -9 -9 -9 -10 -10 -10 -10 -10 -9 -9 -9 -9
-0 -1 -1 -2 -2 -3 -4 -4 -5 -5 -5 -5 -6 -6 -7 -7 -7 -8 -8 -8 -8 -8 -8 -9 -9 -9 -9 -9 -9 -9 -10 -10 -10 -10 -10 -10 -10 -10 -10 -10 -10 -9 -9
-1 -2 -2 -3 -3 -4 -5 -5 -6 -6 -6 -6 -6 -7 -7 -8 -8 -8 -8 -9 -9 -9 -9 -9 -9 -9 -9 -10 -10 -10 -10 -10 -10 -10 -10 -10 -10 -10 -10 -10 -10 -10 -10
-2 -3 -3 -4 -4 -5 -6 -6 -7 -7 -7 -7 -7 -8 -8 -8 -8 -9 -9 -9 -10 -10 -10 -10 -10 -10 -10 -10 -10 -11 -11 -11 -11 -11 -11 -11 -11 -11 -11 -10 -10 -10 -10
-3 -4 -4 -5 -5 -6 -7 -7 -7 -8 -8 -8 -8 -8 -9 -9 -9 -9 -9 -10 -10 -10 -10 -10 -10 -10 -10 -11 -11 -11 -11 -11 -11 -11 -11 -11 -11 -11 -11 -11 -11 -10 -10
-4 -5 -5 -6 -6 -7 -7 -8 -8 -8 -8 -9 -9 -9 -9 -10 -10 -10 -10 -10 -10 -11 -11 -11 -11 -11 -11 -11 -11 -11 -11 -12 -11 -11 -11 -11 -11 -11 -11 -11 -11 -11 -10
-5 -6 -6 -7 -7 -8 -8 -8 -9 -9 -9 -9 -9 -10 -10 -10 -10 -10 -11 -11 -11 -11 -11 -11 -11 -11 -11 -11 -12 -12 -12 -12 -12 -12 -12 -12 -12 -11 -11 -11 -11 -11 -11
-6 -7 -7 -8 -8 -8 -9 -9 -9 -10 -10 -10 -10 -10 -11 -11 -11 -11 -11 -11 -11 -11 -11 -12 -12 -12 -12 -12 -12 -12 -12 -12 -12 -12 -12 -12 -12 -12 -12 -11 -11 -11 -11
-7 -7 -8 -8 -9 -9 -9 -10 -10 -10 -10 -11 -11 -11 -11 -11 -12 -12 -12 -12 -12 -12 -12 -12 -12 -12 -12 -12 -12 -12 -12 -12 -12 -12 -12 -12 -12 -12 -12 -12 -11 -11 -11
-8 -8 -9 -9 -9 -10 -10 -10 -11 -11 -11 -11 -12 -12 -12 -12 -12 -12 -12 -12 -12 -12 -12 -12 -12 -12 -12 -12 -12 -12 -12 -12 -12 -12 -12 -12 -12 -12 -12 -12 -12 -11 -11
-9 -9 -9 -10 -10 -11 -11 -11 -11 -11 -12 -12 -12 -12 -12 -12 -12 -12 -12 -12 -12 -12 -12 -12 -12 -12 -12 -12 -12 -12 -12 -12 -12 -12 -12 -12 -12 -12 -12 -12 -11 -11 -11
Wind_Speed
13 12 11 10 9 9 8 8 7 7 7 7 7 8 8 9 9 10 11 12 13 13 13 14 15 15 13 12 12 13 13 14 18 18 16 16 18 18 18 19 21 21 20
12 12 11 10 9 9 9 8 7 7 7 7 8 8 9 10 10 11 13 13 14 15 15 15 16 13 16 14 13 14 14 15 17 21 18 16 19 18 18 18 17 18 19
12 12 11 10 10 10 9 8 8 7 8 8 8 9 10 10 11 12 13 14 15 16 16 16 16 16 17 15 15 15 14 15 15 17 18 16 16 16 17 17 18 16 17
12 12 12 11 10 10 9 8 7 8 8 8 9 10 11 11 12 12 13 14 16 16 16 17 17 17 18 18 16 17 16 16 16 16 17 16 16 16 15 15 15 14 14
12 12 11 10 9 8 8 7 7 8 8 9 10 11 11 11 11 12 13 15 16 17 17 17 18 19 21 19 17 17 17 15 15 15 16 16 15 14 14 14 15 15 15
11 11 10 9 8 8 8 7 7 8 9 9 11 12 12 11 14 17 17 16 17 17 18 18 18 19 21 23 25 25 23 20 18 17 16 17 18 17 15 14 14 14 14
10 9 9 8 8 7 7 7 8 9 9 11 12 12 14 14 16 19 20 17 18 18 18 18 16 16 20 18 20 23 23 25 25 21 20 20 20 18 17 17 15 16 16
8 8 8 8 7 7 7 8 8 8 9 11 12 13 14 15 17 19 20 18 18 18 18 18 18 19 17 18 18 18 19 19 21 18 17 19 19 19 17 17 17 16 16
8 8 7 7 7 7 7 8 8 9 10 11 12 13 15 16 17 19 20 15 16 18 18 17 18 18 21 23 20 19 20 19 20 23 25 25 27 27 22 14 12 12 13
6 6 6 6 7 7 8 8 8 9 10 11 13 14 15 16 17 19 20 13 15 16 15 16 19 21 22 23 19 18 19 18 17 17 19 20 19 19 21 15 11 12 12
4 4 5 6 7 7 8 8 9 9 11 12 14 14 15 16 18 20 20 13 14 15 14 14 14 21 23 24 23 19 20 20 17 16 15 14 13 12 11 11 10 10 12
3 4 5 6 6 6 8 8 9 10 11 13 13 14 13 14 15 17 20 20 19 17 16 14 15 22 25 26 22 21 24 21 13 13 12 12 11 10 9 9 9 10 11
3 5 5 6 6 7 8 9 9 10 10 11 11 13 13 12 13 18 20 21 22 17 16 21 24 27 26 21 21 22 19 13 11 12 12 12 11 10 9 9 10 9 11
4 5 6 6 7 8 8 8 9 9 10 11 12 13 13 13 12 11 12 14 17 17 16 19 24 25 21 19 17 14 11 10 10 11 11 11 10 9 9 9 9 8 8
5 6 7 7 8 9 9 9 11 11 12 12 12 13 14 15 16 20 18 15 14 15 16 14 13 13 12 11 10 10 9 9 10 10 10 10 10 10 9 9 8 8 9
6 6 6 7 7 8 10 11 12 15 19 21 21 20 17 21 26 26 26 26 27 25 20 14 13 12 11 10 10 10 10 10 10 9 10 10 10 10 9 9 8 9 9
7 7 7 8 8 9 10 11 13 13 16 19 21 22 22 24 26 26 26 26 26 24 16 13 12 12 11 11 10 10 10 10 9 9 10 10 10 9 9 9 9 8 8
8 8 9 8 9 10 10 11 12 13 14 13 15 19 21 23 24 24 25 22 16 14 11 12 12 12 11 11 10 10 10 9 9 9 10 10 9 9 9 9 9 9 8
8 7 8 9 9 10 11 12 12 14 14 14 14 15 18 19 21 22 20 13 13 13 12 12 12 12 11 11 11 10 10 10 10 10 10 10 10 9 9 9 9 11 10
8 10 11 10 10 11 11 12 12 13 14 14 14 14 14 14 14 14 13 12 12 13 13 12 12 12 11 11 11 10 10 11 11 10 10 10 9 9 10 10 9 9 8
8 9 12 11 10 11 11 12 13 13 14 14 14 16 20 15 15 15 13 13 13 13 12 12 12 12 11 11 10 11 12 11 11 10 10 10 9 9 9 9 9 9 8
8 9 10 11 11 11 12 12 13 14 15 16 15 16 21 15 14 14 13 13 13 12 12 12 12 11 11 11 11 11 11 11 11 10 10 10 9 9 9 9 9 8 8
9 11 11 11 11 14 15 13 13 14 15 15 15 15 14 14 14 14 14 14 13 13 12 12 12 12 12 11 11 11 12 12 11 11 10 10 10 9 9 9 10 10 9
10 11 12 12 12 13 13 14 14 14 15 15 15 15 15 14 14 15 15 14 14 13 13 12 13 15 17 14 12 11 12 12 12 11 13 12 12 11 10 10 10 11 10
11 12 12 12 13 13 14 14 15 15 15 15 15 15 15 15 15 15 15 14 15 15 16 15 13 14 16 17 16 14 17 20 20 15 12 12 13 13 12 12 11 11 10
11 12 12 12 12 13 13 14 15 15 15 15 15 15 15 15 15 15 15 14 14 14 15 14 15 17 18 16 18 20 22 23 23 22 15 12 13 13 13 12 13 12 12
Wind_Direction
197 197 197 198 198 200 204 208 211 217 222 231 240 249 256 260 264 267 269 275 276 277 276 274 274 275 275 273 272 271 271 272 278 285 287 289 289 287 286 286 286 286 285
198 199 200 198 197 203 209 211 214 222 229 237 245 253 259 262 266 271 275 276 276 278 278 277 276 277 274 274 273 272 272 272 276 285 288 290 289 289 287 286 286 285 283
197 199 200 200 202 208 212 214 219 227 235 241 247 254 260 264 269 272 276 277 277 277 278 277 277 277 276 275 274 275 275 275 275 280 285 287 287 286 286 284 283 281 282
197 200 203 205 207 211 214 217 223 231 240 246 252 258 263 267 270 273 275 277 278 278 276 275 274 274 275 276 277 276 277 277 276 277 280 283 283 284 282 284 285 283 283
198 203 207 207 208 210 215 222 229 237 244 251 257 261 264 268 268 271 276 278 279 280 278 276 274 273 273 274 274 276 277 276 277 277 279 282 282 284 283 284 284 285 284
202 207 206 205 207 213 220 227 236 243 249 255 259 264 268 268 269 273 278 281 281 280 280 280 278 276 275 275 275 276 277 278 280 279 280 280 283 284 286 285 283 283 286
205 207 204 206 210 217 224 234 242 250 256 260 264 268 271 272 273 277 279 282 282 280 280 280 280 278 279 278 279 280 279 276 275 276 278 279 282 284 285 283 278 278 280
205 207 207 208 215 222 231 242 251 257 261 265 270 273 276 276 277 280 283 283 281 279 278 278 279 280 279 280 281 280 278 276 275 274 273 276 278 280 278 277 279 279 278
207 211 211 214 222 230 241 251 259 264 267 270 274 275 277 280 279 282 284 285 281 281 279 277 277 278 279 280 281 280 281 280 279 277 277 278 279 280 280 281 278 279 281
213 217 220 225 233 242 251 260 266 267 271 276 275 276 278 281 282 282 283 282 283 283 282 279 277 277 280 282 282 282 282 283 285 286 285 282 281 281 281 275 275 278 282
217 224 232 238 245 253 260 264 269 273 275 276 279 279 279 279 282 281 281 281 282 286 285 284 281 282 282 284 284 282 282 287 289 288 287 284 280 274 270 268 265 266 273
221 235 246 253 258 258 264 270 273 275 278 280 283 285 283 281 279 280 281 281 284 285 284 284 283 284 285 285 285 282 286 291 288 286 284 281 280 277 276 274 269 265 264
237 251 260 265 266 265 268 273 276 276 277 281 284 286 287 287 284 283 285 286 286 285 284 285 287 288 288 287 283 284 288 287 284 282 280 281 282 284 285 282 276 265 263
254 265 269 271 274 273 271 269 271 274 277 279 282 285 288 289 288 290 290 291 290 288 287 287 288 287 284 281 281 282 279 277 278 279 282 284 285 284 281 279 278 276 275
264 270 273 273 274 277 275 271 271 271 272 277 281 283 287 289 289 293 294 293 292 289 292 289 285 284 279 274 275 276 276 276 278 277 278 280 281 281 280 279 276 274 272
268 274 276 277 278 278 282 283 268 267 276 275 276 279 282 283 291 294 295 295 296 296 295 288 285 285 282 280 281 280 279 278 277 277 276 277 278 279 280 278 275 271 271
268 275 279 278 279 282 284 286 290 287 278 278 279 282 283 288 292 295 297 298 296 295 289 283 283 284 283 280 278 278 279 278 278 276 275 275 274 275 277 276 273 271 270
273 275 276 279 281 283 284 285 287 291 295 293 289 287 289 291 294 296 298 299 294 289 281 282 282 283 282 280 278 278 279 278 275 274 274 272 271 272 272 273 272 270 272
279 279 281 283 283 283 284 285 286 288 290 293 295 294 294 296 296 295 296 289 287 286 284 282 281 282 280 278 277 276 275 276 274 273 273 272 270 268 269 271 273 272 269
280 279 283 286 287 286 286 286 288 289 290 291 292 295 299 299 296 295 291 286 284 283 283 283 282 280 279 277 275 273 273 273 272 269 269 269 267 265 266 267 269 270 267
286 285 286 286 284 285 286 286 287 288 289 290 291 293 296 296 293 291 290 287 285 284 284 284 283 282 279 277 273 270 269 270 270 268 268 267 265 264 264 264 264 264 264
287 286 287 287 287 287 288 288 289 289 290 291 292 294 296 293 289 288 287 287 286 283 283 282 282 279 278 277 274 271 269 269 268 265 265 265 264 263 262 261 260 260 258
288 288 288 288 288 290 291 289 288 289 290 291 292 293 293 291 289 288 288 288 287 285 283 280 279 277 276 274 271 269 268 268 268 266 264 265 263 262 260 258 256 257 254
289 289 289 290 291 290 290 290 290 290 290 291 291 291 291 290 289 288 288 287 286 285 283 280 278 278 278 277 273 269 266 265 266 263 260 258 259 260 258 254 253 252 251
291 291 291 291 291 291 291 291 290 290 290 290 290 290 289 289 288 288 288 286 286 284 283 282 279 278 277 276 273 271 270 270 269 266 258 253 253 253 253 251 249 251 245
293 292 291 291 290 290 290 290 290 290 290 289 289 288 288 288 287 287 287 286 286 286 285 282 278 277 277 276 274 273 273 272 271 269 262 256 251 250 248 244 244 242 241
Height
1505 1507 1509 1510 1512 1513 1513 1514 1513 1513 1512 1510 1509 1507 1505 1503 1501 1498 1495 1492 1488 1485 1482 1478 1475 1472 1468 1464 1461 1457 1454 1449 1441 1434 1434 1431 1428 1424 1419 1416 1412 1408 1404
1500 1502 1504 1505 1506 1507 1508 1508 1508 1507 1506 1505 1503 1501 1499 1497 1494 1491 1488 1485 1481 1477 1474 1470 1467 1464 1460 1457 1453 1449 1446 1442 1436 1428 1424 1423 1419 1416 1412 1408 1404 1401 1397
1495 1497 1498 1499 1501 1502 1502 1502 1502 1501 1500 1498 1497 1495 1492 1490 1487 1484 1481 1477 1473 1469 1466 1462 1459 1455 1451 1449 1445 1441 1438 1434 1429 1423 1417 1414 1411 1408 1404 1400 1397 1393 1390
1489 1491 1492 1494 1495 1496 1497 1496 1496 1495 1494 1492 1490 1488 1486 1483 1480 1477 1473 1469 1465 1461 1457 1454 1450 1447 1443 1440 1436 1433 1430 1425 1422 1417 1411 1406 1403 1400 1398 1393 1389 1386 1383
1483 1485 1486 1488 1489 1490 1490 1490 1490 1489 1487 1485 1483 1481 1478 1475 1472 1469 1465 1460 1456 1452 1448 1445 1441 1437 1434 1431 1428 1424 1421 1417 1413 1409 1404 1399 1396 1393 1390 1387 1382 1378 1375
1477 1479 1481 1482 1483 1484 1484 1484 1483 1482 1480 1478 1476 1473 1470 1467 1464 1461 1457 1452 1447 1443 1439 1435 1431 1428 1424 1421 1418 1415 1413 1409 1405 1401 1396 1392 1388 1386 1383 1379 1376 1371 1367
1472 1474 1475 1476 1477 1478 1478 1477 1476 1475 1473 1471 1468 1465 1462 1459 1456 1452 1448 1443 1438 1434 1430 1426 1422 1418 1415 1412 1408 1405 1402 1399 1397 1394 1388 1384 1381 1378 1376 1371 1368 1364 1360
1467 1468 1469 1470 1471 1472 1471 1471 1470 1468 1466 1463 1460 1457 1454 1450 1447 1443 1439 1434 1429 1425 1421 1417 1413 1409 1406 1403 1399 1395 1392 1389 1387 1384 1380 1376 1373 1370 1367 1364 1360 1356 1352
1462 1463 1464 1465 1465 1465 1465 1464 1463 1461 1458 1455 1452 1449 1445 1441 1438 1434 1430 1424 1419 1415 1411 1408 1404 1400 1397 1394 1391 1386 1382 1379 1377 1374 1371 1367 1364 1361 1359 1356 1352 1348 1344
1458 1459 1459 1460 1460 1459 1459 1457 1456 1453 1450 1447 1443 1440 1436 1432 1429 1425 1421 1416 1410 1406 1402 1398 1395 1391 1388 1386 1383 1378 1374 1370 1368 1364 1361 1358 1355 1352 1350 1348 1345 1342 1338
1455 1455 1455 1455 1454 1453 1452 1451 1448 1446 1442 1439 1435 1431 1427 1423 1419 1416 1412 1408 1403 1397 1392 1388 1385 1382 1379 1377 1374 1370 1366 1363 1359 1355 1351 1348 1345 1343 1341 1339 1337 1335 1332
1451 1450 1450 1449 1448 1447 1445 1443 1441 1438 1434 1430 1426 1422 1418 1414 1410 1406 1403 1399 1395 1390 1384 1380 1376 1373 1370 1367 1365 1361 1358 1355 1351 1347 1344 1340 1338 1335 1333 1331 1329 1327 1324
1446 1446 1445 1444 1442 1441 1439 1436 1433 1430 1426 1422 1418 1413 1409 1405 1401 1397 1394 1390 1386 1381 1376 1371 1368 1364 1361 1357 1354 1352 1349 1346 1343 1339 1336 1334 1331 1329 1326 1323 1321 1319 1317
1442 1441 1439 1438 1436 1434 1431 1429 1426 1422 1418 1414 1410 1405 1400 1396 1392 1388 1384 1380 1376 1372 1367 1362 1358 1355 1351 1348 1345 1343 1340 1338 1335 1332 1329 1326 1324 1322 1319 1317 1315 1313 1311
1437 1435 1433 1431 1429 1426 1424 1421 1417 1414 1411 1407 1402 1397 1392 1387 1383 1381 1377 1372 1367 1363 1358 1353 1349 1345 1342 1339 1337 1334 1332 1330 1328 1325 1322 1320 1318 1315 1313 1311 1309 1307 1306
1431 1429 1427 1425 1422 1419 1415 1411 1407 1405 1401 1397 1393 1389 1383 1379 1374 1370 1367 1363 1358 1355 1350 1345 1341 1338 1334 1332 1329 1327 1325 1322 1320 1318 1316 1314 1312 1309 1307 1306 1304 1302 1300
1425 1423 1421 1418 1415 1411 1407 1403 1398 1394 1391 1387 1383 1379 1375 1370 1365 1361 1357 1353 1349 1345 1341 1336 1333 1330 1327 1324 1322 1320 1317 1315 1313 1311 1309 1307 1305 1304 1302 1300 1298 1297 1296
1419 1417 1414 1411 1407 1403 1400 1395 1391 1386 1381 1376 1373 1370 1365 1360 1356 1352 1348 1343 1338 1335 1332 1329 1326 1323 1320 1317 1315 1312 1310 1308 1306 1304 1302 1301 1299 1298 1296 1295 1293 1292 1291
1412 1410 1407 1403 1400 1396 1392 1388 1383 1379 1374 1368 1363 1360 1356 1352 1347 1343 1339 1335 1331 1327 1324 1321 1318 1315 1312 1310 1307 1305 1303 1301 1299 1297 1295 1294 1293 1292 1290 1289 1288 1287 1286
1405 1403 1400 1396 1392 1388 1384 1380 1376 1371 1366 1361 1356 1351 1347 1343 1338 1334 1331 1327 1323 1319 1316 1313 1310 1307 1305 1302 1300 1298 1295 1293 1292 1290 1289 1287 1286 1285 1284 1283 1282 1281 1281
1398 1395 1392 1388 1384 1380 1376 1372 1367 1363 1358 1353 1348 1344 1340 1336 1330 1326 1322 1319 1315 1311 1308 1305 1302 1299 1297 1294 1292 1290 1288 1286 1284 1283 1282 1281 1280 1279 1278 1277 1276 1276 1275
1391 1388 1384 1380 1376 1372 1368 1364 1360 1355 1350 1345 1339 1335 1331 1327 1322 1318 1314 1310 1306 1303 1300 1297 1293 1291 1288 1286 1284 1282 1280 1278 1277 1276 1275 1274 1273 1272 1272 1271 1271 1270 1270
1384 1380 1377 1373 1369 1364 1360 1356 1351 1346 1341 1336 1331 1326 1322 1318 1313 1309 1305 1301 1297 1294 1291 1288 1285 1282 1280 1278 1276 1274 1272 1270 1269 1268 1267 1266 1266 1265 1265 1265 1264 1264 1265
1377 1373 1369 1365 1361 1356 1352 1347 1342 1337 1332 1327 1322 1318 1313 1309 1304 1300 1296 1292 1288 1285 1282 1279 1276 1273 1271 1269 1267 1265 1263 1262 1261 1260 1259 1259 1259 1258 1258 1258 1258 1258 1258
1370 1366 1362 1357 1352 1348 1343 1338 1333 1328 1323 1318 1314 1309 1304 1300 1295 1291 1287 1283 1279 1276 1272 1270 1266 1263 1261 1259 1257 1255 1254 1253 1252 1252 1251 1251 1251 1250 1250 1250 1251 1251 1252
1362 1358 1353 1349 1344 1339 1334 1329 1324 1319 1314 1309 1305 1300 1295 1291 1286 1282 1278 1274 1270 1266 1263 1260 1257 1254 1251 1249 1247 1245 1244 1243 1242 1242 1243 1243 1242 1242 1242 1242 1243 1244 1245